CW7710 Weather Reports


Display with metric or nautical units.
time (UTC)temp
F
wind
direction
speed
MPH
gust
MPH
rain 1hr
in
rain 24hr
in
rain mn
in
humidity
%
barometer
mb
20260903232342 75 222 19.0 0.0 0.00 0.00 0.00 30 1010.8
20260903231330 76 220 19.0 0.0 0.00 0.00 0.00 30 1010.8
20260903230336 75 203 19.0 0.0 0.00 0.00 0.00 31 1010.9
20260903225339 76 219 19.0 0.0 0.00 0.00 0.00 30 1010.4
20260903224342 78 229 20.0 0.0 0.00 0.00 0.00 30 1010.7
20260903223405 75 198 19.0 0.0 0.00 0.00 0.00 31 1010.6
20260903222331 76 223 17.0 0.0 0.00 0.00 0.00 31 1010.3
20260903221335 78 224 18.0 0.0 0.00 0.00 0.00 30 1010.8
20260903220339 78 214 20.0 0.0 0.00 0.00 0.00 30 1010.9
20260903215343 75 217 23.0 0.0 0.00 0.00 0.00 33 1010.5
20260903214331 75 215 20.0 0.0 0.00 0.00 0.00 33 1010.5
20260903213337 75 238 21.0 0.0 0.00 0.00 0.00 32 1010.6
20260903212344 75 221 21.0 0.0 0.00 0.00 0.00 32 1010.4
20260903211328 76 219 19.0 0.0 0.00 0.00 0.00 32 1010.4
20260903210355 76 242 18.0 0.0 0.00 0.00 0.00 32 1010.5
20260903205338 75 196 17.0 0.0 0.00 0.00 0.00 32 1010.8
20260903204342 75 234 18.0 0.0 0.00 0.00 0.00 32 1010.8
20260903203328 75 211 12.0 0.0 0.00 0.00 0.00 32 1010.8
20260903202359 74 234 10.0 0.0 0.00 0.00 0.00 32 1011.3
20260903201342 76 198 12.0 0.0 0.00 0.00 0.00 31 1010.7
20260903200345 76 269 8.0 0.0 0.00 0.00 0.00 31 1011.0
20260903195329 77 314 14.0 0.0 0.00 0.00 0.00 30 1011.1
20260903194342 76 253 13.0 0.0 0.00 0.00 0.00 32 1011.3
20260903193326 76 272 10.0 0.0 0.00 0.00 0.00 31 1011.3
20260903192328 75 300 16.0 0.0 0.00 0.00 0.00 31 1010.9
20260903191351 76 241 13.0 0.0 0.00 0.00 0.00 31 1011.9
20260903190336 75 225 15.0 0.0 0.00 0.00 0.00 30 1011.1
20260903185403 75 274 10.0 0.0 0.00 0.00 0.00 32 1011.6
20260903184325 74 181 11.0 0.0 0.00 0.00 0.00 32 1012.1
20260903183327 72 202 10.0 0.0 0.00 0.00 0.00 32 1011.7
20260903182331 72 225 15.0 0.0 0.00 0.00 0.00 33 1011.9
20260903181339 71 242 16.0 0.0 0.00 0.00 0.00 35 1012.0
20260903180342 70 205 17.0 0.0 0.00 0.00 0.00 34 1012.3
20260903175345 70 231 18.0 0.0 0.00 0.00 0.00 33 1012.7
20260903174331 71 215 17.0 0.0 0.00 0.00 0.00 33 1012.3
20260903173334 71 210 18.0 0.0 0.00 0.00 0.00 33 1012.4
20260903172342 70 232 17.0 0.0 0.00 0.00 0.00 33 1012.6
20260903171404 70 218 14.0 0.0 0.00 0.00 0.00 34 1012.7
20260903170326 70 208 13.0 0.0 0.00 0.00 0.00 34 1012.7
20260903165329 70 193 16.0 0.0 0.00 0.00 0.00 34 1012.5
20260903164337 70 213 16.0 0.0 0.00 0.00 0.00 34 1012.5
20260903163342 68 204 14.0 0.0 0.00 0.00 0.00 36 1012.7
20260903162326 69 210 13.0 0.0 0.00 0.00 0.00 35 1012.5
20260903161328 69 250 15.0 0.0 0.00 0.00 0.00 35 1012.6
20260903160339 68 197 15.0 0.0 0.00 0.00 0.00 35 1012.9
20260903155405 67 243 12.0 0.0 0.00 0.00 0.00 36 1012.6
20260903154327 67 203 13.0 0.0 0.00 0.00 0.00 36 1012.7
20260903153333 66 218 13.0 0.0 0.00 0.00 0.00 38 1012.7
20260903152356 65 220 13.0 0.0 0.00 0.00 0.00 38 1013.1
20260903151343 66 225 14.0 0.0 0.00 0.00 0.00 39 1012.7
20260903150347 64 211 14.0 0.0 0.00 0.00 0.00 39 1012.2
20260903145329 64 195 14.0 0.0 0.00 0.00 0.00 40 1013.2
20260903144334 63 214 14.0 0.0 0.00 0.00 0.00 41 1012.6
20260903143336 63 245 12.0 0.0 0.00 0.00 0.00 42 1012.5
20260903142325 62 234 12.0 0.0 0.00 0.00 0.00 42 1012.6
20260903141330 62 237 17.0 0.0 0.00 0.00 0.00 41 1012.6
20260903140333 62 217 18.0 0.0 0.00 0.00 0.00 41 1012.4
20260903135342 62 209 17.0 0.0 0.00 0.00 0.00 43 1012.8
20260903134329 61 211 14.0 0.0 0.00 0.00 0.00 47 1012.9
20260903133336 57 215 11.0 0.0 0.00 0.00 0.00 63 1012.3
20260903132343 50 230 6.0 0.0 0.00 0.00 0.00 77 1012.8
20260903131325 49 286 4.0 0.0 0.00 0.00 0.00 78 1012.6
20260903130335 49 278 4.0 0.0 0.00 0.00 0.00 78 1012.5
20260903125338 49 303 4.0 0.0 0.00 0.00 0.00 77 1012.0
20260903124341 49 303 3.0 0.0 0.00 0.00 0.00 77 1012.0
20260903123406 49 253 3.0 0.0 0.00 0.00 0.00 75 1012.0
20260903122328 50 300 3.0 0.0 0.00 0.00 0.00 74 1011.6
20260903121356 51 275 3.0 0.0 0.00 0.00 0.00 73 1011.4
20260903120342 51 295 2.0 0.0 0.00 0.00 0.00 73 1011.3
20260903115335 51 304 2.0 0.0 0.00 0.00 0.00 75 1011.5
20260903114343 50 286 2.0 0.0 0.00 0.00 0.00 76 1011.3
20260903113350 49 259 4.0 0.0 0.00 0.00 0.00 77 1011.6
20260903112332 49 271 5.0 0.0 0.00 0.00 0.00 78 1011.5
20260903111355 49 280 4.0 0.0 0.00 0.00 0.00 79 1011.4
20260903110337 48 307 2.0 0.0 0.00 0.00 0.00 80 1011.3
20260903105340 48 339 2.0 0.0 0.00 0.00 0.00 79 1010.9
20260903104327 48 71 3.0 0.0 0.00 0.00 0.00 79 1010.8
20260903103330 48 63 5.0 0.0 0.00 0.00 0.00 78 1010.7
20260903102333 48 66 3.0 0.0 0.00 0.00 0.00 78 1010.7
20260903101335 48 83 1.0 0.0 0.00 0.00 0.00 77 1010.5
20260903100326 49 75 3.0 0.0 0.00 0.00 0.00 75 1010.3
20260903095329 50 80 3.0 0.0 0.00 0.00 0.00 77 1010.2
20260903094336 50 125 5.0 0.0 0.00 0.00 0.00 80 1010.0
20260903093342 48 154 4.0 0.0 0.00 0.00 0.00 81 1010.5
20260903092328 47 94 1.0 0.0 0.00 0.00 0.00 80 1010.8
20260903091331 46 81 3.0 0.0 0.00 0.00 0.00 79 1010.8
20260903090335 47 32 1.0 0.0 0.00 0.00 0.00 78 1011.0
20260903085341 47 62 2.0 0.0 0.00 0.00 0.00 77 1010.5
20260903084345 48 113 0.0 0.0 0.00 0.00 0.00 76 1011.0
20260903083334 48 92 0.0 0.0 0.00 0.00 0.00 75 1011.0
20260903082340 49 92 1.0 0.0 0.00 0.00 0.00 74 1010.9
20260903081343 50 92 2.0 0.0 0.00 0.00 0.00 74 1010.7
20260903080346 50 123 4.0 0.0 0.00 0.00 0.00 76 1010.6
20260903075352 49 167 5.0 0.0 0.00 0.00 0.00 78 1010.8
20260903074334 47 111 3.0 0.0 0.00 0.00 0.00 78 1010.3
20260903073337 48 87 2.0 0.0 0.00 0.00 0.00 78 1010.7
20260903072341 47 90 0.0 0.0 0.00 0.00 0.00 77 1010.3
20260903071328 47 90 0.0 0.0 0.00 0.00 0.00 77 1010.5
20260903070332 47 345 0.0 0.0 0.00 0.00 0.00 76 1010.5
20260903065335 47 345 0.0 0.0 0.00 0.00 0.00 75 1010.9
20260903064342 47 46 0.0 0.0 0.00 0.00 0.00 73 1010.7
20260903063405 48 5 1.0 0.0 0.00 0.00 0.00 71 1010.7
20260903062332 49 12 1.0 0.0 0.00 0.00 0.00 69 1010.3
20260903061340 51 230 2.0 0.0 0.00 0.00 0.00 68 1010.8
20260903060344 51 111 3.0 0.0 0.00 0.00 0.00 67 1010.7
20260903055349 52 85 2.0 0.0 0.00 0.00 0.00 66 1010.0
20260903054330 53 114 3.0 0.0 0.00 0.00 0.00 65 1010.3
20260903053337 53 112 3.0 0.0 0.00 0.00 0.00 63 1010.4
20260903052340 54 100 1.0 0.0 0.00 0.00 0.00 62 1010.9
20260903051343 54 101 3.0 0.0 0.00 0.00 0.00 62 1010.9
20260903050327 54 250 6.0 0.0 0.00 0.00 0.00 63 1011.2
20260903045357 53 212 5.0 0.0 0.00 0.00 0.00 63 1010.9
20260903044359 54 236 2.0 0.0 0.00 0.00 0.00 60 1011.1
20260903043341 56 11 2.0 0.0 0.00 0.00 0.00 58 1010.6
20260903042344 56 1 2.0 0.0 0.00 0.00 0.00 57 1010.6
20260903041331 58 40 3.0 0.0 0.00 0.00 0.00 56 1010.5
20260903040333 56 11 5.0 0.0 0.00 0.00 0.00 58 1011.6
20260903035357 56 248 4.0 0.0 0.00 0.00 0.00 57 1010.9
20260903034339 57 192 5.0 0.0 0.00 0.00 0.00 56 1010.5
20260903033325 58 242 6.0 0.0 0.00 0.00 0.00 55 1010.5
20260903032333 59 247 4.0 0.0 0.00 0.00 0.00 52 1011.0
20260903031336 61 215 2.0 0.0 0.00 0.00 0.00 48 1010.7
20260903030339 62 190 0.0 0.0 0.00 0.00 0.00 47 1010.4
20260903025325 63 10 4.0 0.0 0.00 0.00 0.00 46 1010.4
20260903024353 64 67 5.0 0.0 0.00 0.00 0.00 45 1010.3
20260903023335 64 356 8.0 0.0 0.00 0.00 0.00 45 1010.2
20260903022335 64 35 9.0 0.0 0.00 0.00 0.00 46 1010.3
20260903021336 64 18 10.0 0.0 0.00 0.00 0.00 46 1010.1
20260903020325 65 7 10.0 0.0 0.00 0.00 0.00 44 1009.8
20260903015332 65 354 11.0 0.0 0.00 0.00 0.00 44 1010.3
20260903014335 65 10 12.0 0.0 0.00 0.00 0.00 45 1010.3
20260903013338 64 16 12.0 0.0 0.00 0.00 0.00 45 1010.1
20260903012400 65 19 12.0 0.0 0.00 0.00 0.00 45 1010.1
20260903011327 66 353 12.0 0.0 0.00 0.00 0.00 42 1009.8
20260903010331 68 356 10.0 0.0 0.00 0.00 0.00 38 1009.5
20260903005338 69 353 10.0 0.0 0.00 0.00 0.00 36 1010.0
20260903004340 70 315 10.0 0.0 0.00 0.00 0.00 35 1009.8
20260903003404 71 307 11.0 0.0 0.00 0.00 0.00 34 1009.8
20260903002329 72 302 13.0 0.0 0.00 0.00 0.00 34 1009.4
20260903001333 72 296 13.0 0.0 0.00 0.00 0.00 34 1009.6
20260903000340 72 304 16.0 0.0 0.00 0.00 0.00 33 1009.6
20260902235343 73 293 16.0 0.0 0.00 0.00 0.00 32 1010.0
20260902234330 73 311 15.0 0.0 0.00 0.00 0.00 31 1009.9
20260902233337 74 298 18.0 0.0 0.00 0.00 0.00 32 1009.6